Regional Weather Roundup
Issued by NWS Green Bay, WI

Home | Current Version | Previous Version | Text Only | Print | Product List | Glossary On
Versions: 1 2 3 4 5 6 7 8 9 10 11 12 13 14 15 16 17 18 19 20 21 22 23 24 25 26 27 28 29 30 31 32 33 34 35 36 37 38 39 40 41 42 43 44 45 46 47 48 49 50
000
ASUS43 KGRB 180111
RWRGRB

NORTH-CENTRAL AND NORTHEAST WISCONSIN REGIONAL WEATHER ROUNDUP
NATIONAL WEATHER SERVICE GREEN BAY WI
700 PM CST TUE JAN 17 2017

WIZ005-009-010>012-018-019-180200-
NORTH CENTRAL WISCONSIN

CITY           SKY/WX    TMP DP  RH WIND       PRES   REMARKS
IRONWOOD       CLEAR     20  18  92 CALM      29.90F
MANITOWISH WTR CLEAR     24  24  99 CALM      29.89S
ARBOR VITAE    CLEAR     27  25  94 CALM      29.89F
EAGLE RIVER    CLEAR     29  29 100 CALM      29.88F
LAND O LAKES   CLEAR     26  24  92 CALM      29.90S
RHINELANDER    PTCLDY    35  32  88 CALM      29.89F
PHILLIPS       CLEAR     25  25 100 CALM      29.90S
ANTIGO         CLOUDY    33  33 100 CALM      29.90S FOG
TOMAHAWK       PTCLDY    30  28  94 CALM      29.91S
MERRILL        CLOUDY    35  35 100 CALM        N/A
$$

WIZ013-073-180200-
NORTHEAST WISCONSIN

CITY           SKY/WX    TMP DP  RH WIND       PRES   REMARKS
IRON MOUNTAIN  CLEAR     32  28  85 CALM      29.88S
MARINETTE      NOT AVBL
OCONTO         CLOUDY    33  32  98 CALM      29.92R
$$

WIZ017-030-035>037-045-180200-
CENTRAL WISCONSIN

CITY           SKY/WX    TMP DP  RH WIND       PRES   REMARKS
MEDFORD        CLEAR     33  32  95 W3        29.91S
WAUSAU         CLOUDY    34  34 100 CALM      29.90S
MOSINEE        CLOUDY    34  34 100 W3        29.92S
MARSHFIELD     MOCLDY    35  33  92 NW7       29.92R
WISC RAPIDS    CLOUDY    34  34 100 SW3       29.95S FOG
STEVENS POINT  CLOUDY    33  33 100 CALM      29.93S FOG
WAUPACA        CLOUDY    36  34  93 CALM      29.94R FOG
SHAWANO        FOG       35  33  94 CALM      29.93R VSB 1
CLINTONVILLE   FOG       34  32  93 W5        29.93R VSB 3/4
WAUTOMA        CLOUDY    34  33  96 W5        29.95R FOG
$$

WIZ038-039-048-051-180200-
FOX VALLEY

CITY           SKY/WX    TMP DP  RH WIND       PRES   REMARKS
NWS GREEN BAY  CLOUDY    35  35 100 NW5       29.93R FOG
APPLETON         N/A     34  34 100 NW6       29.91R FOG
OSHKOSH        FOG       33  32  96 NW6       29.92S VSB 3/4
FOND DU LAC    CLOUDY    34  31  88 NW6       29.92S FOG
$$

WIZ022-050-052-180200-
EAST CENTRAL WISCONSIN

CITY           SKY/WX    TMP DP  RH WIND       PRES   REMARKS
EPHRAIM        FOG       32  32 100 N5        29.89S VSB 1/4
WASHINGTON ISL CLOUDY    32  32 100 NE3       29.89F FOG
STURGEON BAY   FOG       32  32 100 N9        29.91R VSB 1/2
MANITOWOC      CLOUDY    34  33  96 MISG      29.92R FOG
SHEBOYGAN      LGT RAIN  34  32  92 NW6       29.91R FOG
$$

LMZ563-521-522-541>543-180200-
LAKESHORE

STATION/POSITION TIME  TEMP    WIND        PRES    VSBY  WAVE
                       AIR SEA DIR/SP/G                  HT/PER
                 (UTC) (F)     (DEG/KT/KT) (MB)    (MI)  (FT/S)
SHEBOYGAN LKSHOR 0100   34     290/  8/ 10 1013.2R
KEWAUNEE LKSHORE 0042   33     320/  6/  9 1012.2R
NORTHPORT PIER   0040   33      10/  6/  8 1012.5S
SISTER BAY LKSHO 0035   32      30/  7/  9   N/A
MENOMINEE LKSHOR 0036          360/  6/  7 1012.0R
$$



USA.gov is the U.S. government's official web portal to all federal, state and local government web resources and services.